Regional Weather Roundup
Issued by NWS Charleston, SC

Current Version | Previous Version | Graphics & Text | Print | Product List | Glossary On
Versions: 1 2 3 4 5 6 7 8 9 10 11 12 13 14 15 16 17 18 19 20 21 22 23 24 25 26 27 28 29 30 31 32 33 34 35 36 37 38 39 40 41 42 43 44 45 46 47 48 49 50
000 ASUS42 KCHS 271310 RWRCHS REGIONAL WEATHER ROUNDUP NATIONAL WEATHER SERVICE CHARLESTON SC 800 AM EST SAT DEC 27 2014 NOTE: "FAIR" INDICATES FEW OR NO CLOUDS BELOW 12,000 FEET WITH NO SIGNIFICANT WEATHER AND/OR OBSTRUCTIONS TO VISIBILITY. NOT ALL STATIONS ARE QUALITY CONTROLLED BY THE NATIONAL WEATHER SERVICE. USE DATA WITH CAUTION...ESPECIALLY DEWPOINT OBSERVATIONS. SCZ027-030-031-034>040-042>050-271400- ...SOUTHEAST SOUTH CAROLINA... CITY SKY/WX TMP DP RH WIND PRES REMARKS N CHARLESTON PTCLDY 42 41 96 N5 30.33R WATERFRONT PRK N/A 52 N/A N/A N7 N/A MOUNT PLEASANT LGT RAIN 41 41 100 CALM 30.32R PINOPOLIS N/A 50 45 81 CALM 30.24R MONCKS CORNER FAIR 41 39 93 CALM 30.33R SUMMERVILLE FAIR 39 39 100 CALM 30.34R BEAUFORT MCAS CLEAR 44 43 96 N3 30.32R BEAUFORT ARPT FAIR 45 45 100 N5 30.31R FOG HILTON HEAD IS CLEAR 46 46 100 N5 30.32R FOG WALTERBORO SUNNY 37 N/A N/A CALM 30.34R ALLENDALE FAIR 37 37 100 CALM 30.32S ...SOUTHERN MIDLANDS AND PEE DEE... CITY SKY/WX TMP DP RH WIND PRES REMARKS GEORGETOWN NOT AVBL KINGSTREE NOT AVBL ORANGEBURG CLEAR 35 33 92 CALM 30.33R BARNWELL N/A 34 34 100 CALM 30.33R AIKEN FAIR 32 32 100 CALM 30.36R MANNING FAIR 34 N/A N/A CALM 30.34R COLUMBIA PTCLDY 32 29 88 CALM 30.33R SUMTER CLEAR 34 31 90 CALM 30.32R FLORENCE CLEAR 34 32 92 CALM 30.33R MYRTLE BEACH CLEAR 39 36 87 CALM 30.34R N MYRTLE BEACH CLEAR 36 36 100 CALM 30.31R $$ GAZ063-065-086>088-099>101-113>116-118-119-134>141-150-271400- ...SOUTHEAST GEORGIA... CITY SKY/WX TMP DP RH WIND PRES REMARKS SAVANNAH ARPT PTCLDY 44 41 89 N5 30.32R HUNTER AAF CLEAR 47 47 100 N2 30.30R FORT STEWART CLEAR 42 40 95 N3 30.31R STATESBORO CLEAR 36 36 100 CALM 30.32R SYLVANIA SUNNY 38 38 100 CALM 30.33R CLAXTON FAIR 37 37 100 CALM 30.32S ...CSRA...CENTRAL AND FAR SOUTHEAST GEORGIA... CITY SKY/WX TMP DP RH WIND PRES REMARKS THOMSON CLEAR 31 31 100 CALM 30.37R AUGUSTA-BUSH CLEAR 31 29 92 CALM 30.34R AUGUSTA-DANIEL CLEAR 40 37 89 CALM 30.33R SWAINSBORO FAIR 37 37 100 CALM 30.33R VIDALIA CLEAR 41 39 93 CALM 30.32R EASTMAN FAIR 35 35 100 CALM 30.34R FOG HAZLEHURST FAIR 46 43 91 NE3 30.30S ALMA CLEAR 43 41 93 CALM 30.30R WAYCROSS CLEAR 47 47 99 CALM 30.30R JESUP FAIR 46 46 100 CALM 30.31R BAXLEY FAIR 43 41 93 NE3 30.30S BRUNSWICK N/A 50 46 87 CALM 30.30R SAINT SIMONS CLEAR 57 52 83 NE8 30.29R $$ SCZ027-028-034-036>038-045-046-048>050-GAZ119-141-271400- ...LAKE AND SUPPLEMENTAL COASTAL OBSERVATIONS... STATION/POSITION TIME TEMP WIND PRES WAVE SWELL AIR SEA DIR/SP/G HT/PER HT/PER/DIR (UTC) (F) (DEG/KT/KT) (MB) (FT/S) (FT/S/D) UPR LAKE MARION NOT AVBL WINYAH BAY 1200 44 CALM 1025.0S LAKE MURRAY 1200 38 CALM 1026.4R ACE BASIN NERRS 1200 43 CALM 1026.0R FORT PULASKI 1300 49 56 330/ 3/ 3 1026.6R SAPELO ISLAND 1200 49 10/ 5 1025.0S $$ ANZ835-935-AMZ111-154-330-350-352-354-370-450-454-472-271400- ...C-MAN AND BUOY OBSERVATIONS... STATION/POSITION TIME TEMP WIND PRES WAVE SWELL AIR SEA DIR/SP/G HT/PER HT/PER/DIR (UTC) (F) (DEG/KT/KT) (MB) (FT/S) (FT/S/D) BUOY 41004 1300 64 73 30/ 10/ 14 1025.8R 2/ 9 2/ 9 BUOY 41008 1300 60 59 70/ 10/ 10 1025.5R 2/ 5 2/150/ 8 FOLLY BEACH CMAN 1200 50 360/ 5/ 6 1026.6R CAPERS NEARSHORE 1200 53 40/ 10/ 12 N/A FRIPP NEARSHORE NOT AVBL STATION/POSITION TIME TEMP WIND PRES WAVE SWELL AIR SEA DIR/SP/G HT/PER HT/PER/DIR (UTC) (F) (DEG/KT/KT) (MB) (FT/S) (FT/S/D) 5E ST. MARYS GA 1300 61 N/A 3/ 5 FRYING PAN BUOY 1300 60 69 40/ 8/ 12 1027.2R 2/12 2/140/12 BUOY 41025 1300 58 1027.2R 2/ 8 CAPE LOOKOUT NC 1200 52 10/ 3/ 3 1026.3R BUOY 41002 1226 68 74 50/ 10/ 14 1026.4R 3/17 3/130/17 BUOY 41010 1300 75 76 110/ 8/ 10 1023.8R 3/13 3/ 60/13 ST AUGUSTINE FL 1300 63 350/ 10/ 10 1025.3R $$

USA.gov is the U.S. government's official web portal to all federal, state and local government web resources and services.